Wind_Speed
28 33 34 31 30 26 24 19 13 9 5 4 5 7 9 10 11 12 13 14 15 15
30 34 34 31 27 24 21 16 11 7 4 3 6 8 9 10 12 13 14 15 16 17
31 33 32 30 28 23 18 13 9 5 2 4 6 8 9 11 12 14 15 16 18 19
34 35 32 30 26 20 15 11 6 3 2 4 7 8 10 12 14 15 16 18 19 20
36 35 32 29 23 17 12 8 5 2 3 5 7 9 11 13 15 17 18 20 20 21
37 34 30 25 20 15 11 6 2 2 4 6 8 10 13 15 17 18 20 20 22 23
36 31 27 22 17 13 8 4 1 2 4 7 10 13 15 16 18 19 20 22 23 23
33 28 23 19 14 10 6 2 0 3 6 9 12 14 16 17 18 19 20 22 22 20
29 24 20 16 12 8 4 1 2 5 8 11 13 16 18 19 19 20 21 21 20 20
25 22 18 14 10 6 3 1 4 7 10 13 15 17 19 21 22 20 21 20 20 20
22 18 15 11 7 4 2 3 6 9 12 15 17 18 20 22 22 20 19 19 20 20
19 15 12 9 5 2 2 5 8 12 15 16 18 20 21 23 20 17 18 19 20 21
16 13 10 6 3 0 3 7 11 14 16 18 19 21 22 23 19 17 19 20 21 22
14 10 6 4 1 2 6 10 13 15 17 18 20 21 22 22 18 17 21 22 23 22
Wind_Direction
199 200 193 191 188 185 180 182 183 194 219 271 307 324 325 323 325 327 326 322 319 316
193 195 191 182 178 177 177 177 187 197 233 287 317 322 323 326 328 325 318 317 317 317
188 187 176 175 175 177 174 178 185 202 243 303 318 323 328 327 323 319 316 316 316 314
174 173 172 171 171 173 174 177 183 203 277 313 324 329 327 322 318 316 315 316 314 313
169 172 169 168 168 170 173 172 180 225 305 322 328 327 322 319 317 317 316 314 313 314
166 166 166 165 166 167 168 167 177 290 319 328 327 324 319 319 319 317 314 314 314 313
162 164 163 163 163 163 161 161 197 316 327 329 325 321 322 322 318 315 314 313 311 309
161 162 162 162 160 160 157 152 328 331 331 326 324 325 323 320 317 314 311 309 308 306
160 161 161 159 158 154 141 114 355 334 327 328 325 323 322 321 318 312 310 309 307 306
161 161 158 156 151 140 121 37 337 328 328 327 325 323 322 322 319 310 310 308 308 308
161 160 155 150 142 131 89 338 331 329 328 327 324 325 324 322 321 311 308 307 307 307
160 156 148 146 136 106 342 331 331 329 327 326 327 327 324 324 320 311 310 310 309 306
152 153 148 139 128 44 330 331 331 329 328 328 326 326 328 327 322 315 314 314 312 310
153 149 147 146 139 324 329 330 329 331 329 325 325 327 330 329 325 318 316 315 314 311
Height
1449 1456 1461 1466 1472 1478 1484 1487 1490 1492 1493 1493 1493 1492 1492 1492 1490 1489 1487 1485 1483 1481
1447 1454 1459 1465 1473 1478 1482 1485 1488 1490 1491 1491 1491 1490 1490 1489 1487 1486 1484 1482 1479 1476
1445 1453 1459 1465 1471 1478 1480 1484 1486 1487 1489 1489 1489 1488 1487 1486 1484 1483 1481 1478 1476 1473
1445 1454 1459 1465 1471 1477 1479 1482 1484 1486 1487 1487 1486 1485 1484 1483 1481 1479 1477 1474 1471 1468
1446 1454 1460 1464 1470 1475 1478 1480 1482 1484 1485 1484 1483 1483 1482 1480 1478 1476 1473 1470 1466 1462
1447 1455 1460 1464 1469 1473 1477 1479 1481 1483 1483 1481 1480 1480 1479 1476 1474 1471 1468 1464 1460 1457
1449 1457 1461 1465 1469 1473 1476 1477 1479 1480 1480 1479 1478 1477 1474 1472 1470 1467 1463 1460 1456 1452
1450 1458 1461 1465 1469 1472 1474 1476 1477 1478 1478 1477 1475 1473 1471 1468 1466 1462 1459 1455 1451 1447
1453 1459 1462 1465 1469 1471 1473 1474 1476 1476 1475 1473 1472 1469 1467 1464 1461 1458 1454 1449 1446 1442
1455 1459 1462 1465 1469 1470 1472 1473 1473 1473 1472 1470 1468 1466 1463 1459 1456 1452 1448 1444 1440 1437
1456 1460 1463 1466 1468 1469 1470 1471 1471 1470 1469 1467 1465 1462 1458 1455 1450 1447 1443 1440 1435 1431
1457 1460 1463 1465 1466 1468 1469 1469 1468 1467 1466 1463 1461 1458 1454 1449 1445 1442 1439 1435 1431 1427
1458 1461 1463 1464 1466 1467 1467 1467 1466 1464 1462 1459 1457 1453 1449 1445 1441 1438 1434 1430 1425 1421
1458 1461 1462 1464 1465 1465 1466 1465 1464 1461 1458 1455 1452 1449 1445 1440 1436 1433 1429 1425 1420 1416